sat.trackr.live / text

‹ back to catalog

STARLINK-36209

NORAD 67022 · 2025-293V

PAYLOAD ACTIVE UNKNOWN

§ Identity

Operator
Country
US
Launch date
2025-12-10
Launch site
AFWTR
Launch vehicle
Mass (kg)
RCS (m²)

Purposes: comms

External: N2YO · Heavens-Above · Gunter

§ Orbital elements

Epoch: 2026-09-20T14:01:10.537536Z

Period
96.11 min
Inclination
70.0015°
Eccentricity
0.0004132
Mean motion
14.98338228 rev/d
Perigee alt
569.2 km
Apogee alt
574.9 km
Semi-major
6,950.2 km
B*
1.3118e-4
RAAN
322.9565°
Arg perigee
269.3287°
Mean anomaly
90.7398°
Rev number
4,408

§ Raw data

STARLINK-362091 67022U 25293V   26263.58414974  .00001473  00000+0  13118-3 0  99902 67022  70.0015 322.9565 0004132 269.3287  90.7398 14.98338228 44081

JSON: /api/v1/satellites/67022 · /tle

For live sub-satellite position, see the globe view (requires WebGL).

§ Visibility from observer

Set your observer location to see the next 7 days of passes ≥ 10°. The values pass through the URL so the page stays shareable.

No JS? Fill the form by hand. The geolocation button needs JavaScript.